sat.trackr.live / text

‹ back to catalog

STARLINK-4788

NORAD 53863 · 2022-114AX

PAYLOAD ACTIVE UNKNOWN

§ Identity

Operator
Country
US
Launch date
2022-09-19
Launch site
AFETR
Launch vehicle
Mass (kg)
RCS (m²)

Purposes: comms

External: N2YO · Heavens-Above · Gunter

§ Orbital elements

Epoch: 2026-05-24T21:08:48.784416Z

Period
95.44 min
Inclination
53.2135°
Eccentricity
0.0001196
Mean motion
15.08830842 rev/d
Perigee alt
538.9 km
Apogee alt
540.6 km
Semi-major
6,917.9 km
B*
1.8041e-4
RAAN
302.1218°
Arg perigee
77.8254°
Mean anomaly
282.2872°
Rev number
20,461

§ Raw data

STARLINK-47881 53863U 22114AX  26144.88112019  .00002584  00000+0  18041-3 0  99972 53863  53.2135 302.1218 0001196  77.8254 282.2872 15.08830842204616

JSON: /api/v1/satellites/53863 · /tle

For live sub-satellite position, see the globe view (requires WebGL).

§ Visibility from observer

Set your observer location to see the next 7 days of passes ≥ 10°. The values pass through the URL so the page stays shareable.

No JS? Fill the form by hand. The geolocation button needs JavaScript.